Theta_e
299 299 299 299 300 300 300 300 301 302 304 304 304 304 303 304 305 306 311 313 311 307 306 313 317 318 318 319 317 316 318 319 321 319 319 318 319 318 318 319 319 319 321 328 347
297 297 298 298 298 298 298 298 299 299 300 300 301 303 304 304 305 309 310 310 310 308 307 312 316 318 319 320 318 318 321 321 321 321 320 320 318 318 318 318 319 323 337 352 349
297 297 297 297 297 297 297 298 298 298 298 298 299 299 301 302 309 312 314 313 310 310 309 312 313 317 318 319 319 319 322 323 321 319 318 319 318 317 318 319 320 321 334 355 353
297 297 298 298 298 298 298 297 297 297 297 297 298 299 303 308 314 311 311 316 316 316 320 314 313 317 319 320 319 320 320 320 321 318 317 318 318 318 317 318 318 320 319 321 356
297 297 297 297 298 298 298 298 298 298 298 297 298 300 306 309 310 309 308 312 317 321 321 314 315 317 318 319 319 320 319 319 318 318 317 317 318 318 318 317 317 317 318 320 322
297 297 297 297 298 298 298 299 299 299 299 299 298 299 306 308 308 307 307 308 314 319 319 315 314 316 316 317 319 319 319 319 318 318 318 319 319 317 318 317 317 317 318 319 322
297 297 297 297 298 298 298 299 299 299 300 300 299 306 306 306 307 308 308 311 312 315 316 317 314 314 315 317 316 317 318 319 320 319 319 318 319 319 318 317 317 317 317 319 321
297 296 296 297 297 297 298 300 300 300 300 300 302 306 306 305 305 307 307 306 307 311 317 316 316 315 314 315 316 318 318 320 320 319 319 319 320 321 320 318 318 318 317 318 319
296 296 296 296 297 298 300 301 302 300 301 303 307 306 308 307 306 308 308 308 308 308 316 315 316 317 316 317 318 318 320 319 319 320 319 319 319 321 319 320 320 320 318 318 319
295 295 295 296 297 298 302 302 302 304 308 308 308 307 307 308 309 310 313 310 311 308 311 314 315 318 318 318 321 320 319 320 321 320 319 320 319 321 320 320 320 321 320 318 319
295 295 295 296 297 300 303 305 305 308 307 305 305 308 305 305 305 309 314 312 314 311 314 314 316 318 318 319 319 321 321 321 320 320 320 321 321 320 321 320 320 320 320 319 319
296 295 295 296 297 302 305 305 305 304 305 304 304 304 303 303 303 305 308 313 315 316 314 316 317 316 317 318 319 319 320 320 320 319 319 320 321 321 321 321 320 320 320 320 319
296 296 296 297 297 305 306 305 304 304 306 304 304 303 306 306 306 307 307 309 312 313 315 317 315 315 316 318 319 320 321 320 320 319 319 320 321 322 322 321 320 320 320 320 319
298 298 298 297 305 305 307 305 305 304 306 306 306 310 309 310 310 310 312 310 309 311 312 314 316 315 317 317 319 320 319 320 319 319 320 319 321 321 322 322 322 321 321 320 320
298 297 297 300 304 306 305 305 305 304 308 307 309 310 310 311 311 311 312 311 313 311 311 313 312 313 315 317 318 320 319 320 319 319 320 320 320 322 322 321 322 322 320 320 320
298 297 298 303 305 304 304 305 305 309 308 306 307 308 309 310 310 309 310 313 314 314 313 313 314 314 314 315 317 319 319 319 320 319 320 320 320 321 323 323 322 323 321 321 320
297 298 301 301 301 302 304 305 308 309 308 307 308 309 311 311 312 313 312 313 316 317 320 316 316 315 315 316 315 318 321 323 323 322 320 320 321 322 323 322 323 323 321 320 320
298 301 301 301 301 304 305 306 310 308 308 307 308 308 312 312 313 313 314 314 313 315 317 315 315 315 315 316 318 320 321 323 323 322 320 321 320 322 321 320 321 322 322 326 332
298 301 300 300 301 304 305 308 308 306 305 307 308 311 313 312 312 313 315 315 314 315 317 315 316 316 317 317 318 319 322 320 320 321 322 320 320 321 320 320 326 328 332 336 333
301 301 300 299 301 305 306 305 305 305 304 306 309 311 312 313 315 315 315 315 316 315 316 316 321 318 317 317 318 319 321 321 319 322 321 321 322 322 322 325 332 334 334 332 332
301 301 299 300 301 303 305 304 304 303 304 307 309 310 312 311 312 316 315 313 314 314 315 317 320 319 317 319 320 322 322 319 319 321 322 322 322 325 323 326 332 334 330 330 329
301 302 300 301 303 303 303 303 302 304 303 305 307 309 311 310 311 314 314 314 313 313 315 317 319 321 320 318 316 319 321 320 321 322 321 322 323 330 325 328 333 330 330 327 326
301 301 301 301 304 303 302 303 303 305 305 306 306 308 308 310 311 313 313 312 313 312 314 315 321 321 325 320 319 317 320 320 321 324 322 325 333 329 330 330 331 329 328 326 327
301 303 301 301 301 301 302 304 304 304 305 304 306 308 310 310 309 311 311 311 310 311 314 317 319 320 322 321 318 321 321 321 320 323 324 322 332 330 332 331 328 327 326 326 327
300 301 300 303 302 301 302 304 305 305 304 304 307 308 309 308 308 311 311 310 309 312 313 313 318 319 319 319 317 318 322 321 322 321 323 326 328 331 329 328 327 326 326 326 325
300 300 299 299 301 302 304 305 304 304 304 305 307 307 307 306 307 308 309 308 309 312 312 312 318 319 321 318 319 321 322 322 320 321 322 326 330 330 329 327 327 325 324 324 323
300 300 298 300 302 303 304 303 304 304 304 304 303 304 306 307 306 305 305 305 306 309 309 311 316 317 322 319 323 324 326 321 321 320 321 324 331 330 327 327 326 324 323 322 320
Wind_Speed
22 21 21 19 17 16 16 16 16 17 18 19 20 21 22 24 26 27 31 27 16 17 23 11 10 15 20 20 17 17 10 18 23 19 17 2 11 13 8 11 9 13 12 7 5
25 24 24 24 25 24 23 22 20 19 19 18 19 19 21 23 28 35 30 32 28 26 19 17 17 19 23 24 17 17 16 25 20 15 13 13 9 8 10 16 14 12 10 7 13
26 26 27 27 27 27 27 27 27 26 24 23 22 21 19 19 24 6 2 1 7 24 21 20 19 23 23 23 27 19 28 18 18 19 21 20 12 12 12 13 15 16 5 4 11
24 24 24 24 24 25 26 27 28 29 29 28 25 20 16 10 7 4 5 3 7 11 15 18 24 28 18 20 31 20 27 29 22 20 21 20 21 20 18 18 4 11 6 2 9
23 24 24 24 25 25 25 24 25 27 30 31 27 19 11 15 26 17 18 14 8 12 19 21 27 29 22 19 25 29 21 20 27 25 23 23 22 19 22 22 21 16 12 10 10
27 27 28 27 27 27 28 28 28 27 26 28 27 20 14 17 12 11 17 19 16 15 19 22 18 29 15 24 22 12 28 31 23 26 27 23 23 23 19 21 18 19 21 16 12
29 29 30 30 29 29 31 31 26 23 29 30 27 17 20 37 7 7 4 6 12 21 23 23 27 18 15 17 26 19 17 16 25 29 20 18 27 31 27 22 23 23 24 20 16
31 31 32 33 33 33 32 28 27 27 25 25 18 16 18 22 18 33 29 34 26 17 21 21 24 27 29 18 9 22 22 24 25 23 27 20 26 21 33 32 32 30 28 24 21
35 35 36 37 39 41 35 34 25 11 13 17 6 14 12 12 14 12 20 21 19 27 20 11 16 26 17 19 16 19 24 32 23 22 18 25 18 24 11 31 32 30 29 28 25
38 38 39 39 40 37 34 34 18 12 3 3 3 8 15 6 6 7 8 20 11 24 23 23 16 15 20 19 25 27 30 25 26 25 24 24 23 11 12 25 24 31 30 31 29
39 39 40 40 39 31 33 23 12 6 6 17 26 27 34 32 27 17 9 17 14 24 24 27 20 29 44 41 36 9 18 26 22 16 25 30 23 24 16 19 22 22 26 29 32
39 39 39 39 36 23 23 11 6 9 19 27 34 34 38 30 30 25 19 16 16 18 22 17 29 38 28 27 28 31 22 20 18 18 19 23 26 23 24 18 25 23 22 25 30
40 40 40 40 31 16 14 11 9 15 11 25 14 14 7 11 15 15 25 30 23 21 24 27 27 30 26 28 27 29 31 21 16 18 19 15 19 24 26 28 27 24 22 25 28
39 40 41 38 12 18 10 16 13 11 6 7 2 1 3 2 7 14 11 13 25 26 22 24 26 27 24 29 28 28 27 23 15 13 17 21 12 26 24 27 28 32 31 29 27
40 41 38 22 14 14 17 18 12 2 7 6 4 2 0 8 15 6 17 13 11 22 13 28 27 28 29 24 30 29 20 25 19 19 13 22 10 15 26 27 28 24 31 31 29
40 40 25 15 13 16 20 15 7 5 3 10 5 15 17 18 23 22 15 17 11 12 20 22 19 18 26 27 25 22 20 22 22 18 17 19 18 17 19 27 24 23 30 32 31
40 30 17 16 20 23 16 11 6 6 17 10 19 21 22 25 21 15 12 17 13 6 9 16 22 17 21 23 27 21 19 9 12 14 15 26 17 21 17 18 21 24 29 30 27
40 11 16 18 22 17 12 7 7 16 14 20 20 28 19 14 12 8 12 11 16 14 13 15 13 18 23 29 25 30 28 11 20 20 25 16 20 12 12 8 12 25 25 23 21
33 10 19 23 19 13 9 4 12 13 12 13 24 14 9 9 6 8 11 8 9 9 9 8 9 6 14 27 28 24 26 29 13 19 17 15 13 12 11 15 12 16 26 25 22
24 10 21 25 15 10 5 8 13 12 15 7 5 9 10 15 8 8 8 8 11 9 13 6 7 11 9 19 28 23 26 25 13 18 20 19 24 8 23 19 17 18 20 23 22
17 7 20 23 10 12 6 7 14 23 17 6 8 7 5 11 12 6 5 5 9 16 8 7 6 0 4 10 15 13 21 25 20 16 14 16 17 6 25 23 20 18 22 25 24
14 5 19 22 10 9 9 14 18 15 21 6 7 5 4 18 10 8 9 5 17 13 12 6 5 5 4 3 8 11 23 28 14 16 15 11 10 2 13 18 18 20 24 24 26
16 8 13 19 7 11 14 12 13 20 16 4 8 6 8 11 9 11 11 17 15 20 6 5 4 5 3 2 7 3 16 15 21 20 12 9 8 3 10 18 22 22 24 28 31
12 6 8 8 15 16 18 11 15 21 13 17 15 14 12 20 13 14 26 10 25 22 22 11 8 9 8 3 2 18 22 19 22 13 14 13 15 13 15 19 18 23 27 31 32
13 5 5 8 12 15 17 16 21 15 8 19 7 14 20 9 23 12 18 22 17 8 10 5 6 10 11 10 7 8 17 23 25 21 17 9 15 18 18 20 23 29 29 32 32
8 6 6 11 18 16 13 12 18 19 16 16 14 25 24 20 19 24 16 7 8 8 8 7 4 7 14 16 15 9 20 32 27 24 11 8 21 19 20 24 28 28 30 32 31
14 12 7 13 11 12 10 20 22 23 12 20 21 20 22 21 16 24 28 21 17 12 6 5 3 4 4 16 20 12 24 27 28 19 13 9 19 22 19 19 24 29 31 32 32
Wind_Direction
1 357 354 351 347 341 334 328 322 318 315 312 310 307 303 299 295 294 275 262 263 235 238 230 201 195 199 208 207 212 233 239 240 231 246 247 226 205 230 230 211 211 240 256 204
359 357 355 351 350 348 344 339 334 325 316 309 305 305 305 303 301 290 276 271 254 240 237 208 201 190 194 206 204 207 227 238 242 241 244 236 238 189 216 220 212 200 222 245 197
356 353 351 349 348 345 341 339 335 329 324 319 315 311 305 313 314 256 314 247 192 214 220 215 210 197 211 208 205 220 236 230 236 232 249 255 218 235 234 225 211 202 200 192 198
352 349 347 345 341 338 336 334 329 325 321 318 316 312 304 305 293 277 230 207 164 209 202 197 203 201 212 209 216 240 235 241 251 230 241 245 245 240 238 242 266 192 183 207 212
352 349 347 345 344 341 337 331 325 319 314 311 307 304 305 262 248 250 248 241 236 209 198 195 199 204 219 222 224 224 245 226 243 237 236 246 244 246 235 237 240 229 243 248 233
353 351 347 348 347 342 335 331 326 313 307 299 288 283 270 264 243 245 244 238 221 197 205 205 215 217 253 242 226 229 235 245 229 240 240 242 247 234 233 231 233 238 244 241 230
353 349 344 344 342 337 331 327 322 308 300 290 281 254 246 247 256 179 194 180 201 222 222 219 219 213 230 256 239 253 241 238 235 231 229 238 249 240 235 231 235 234 235 230 225
351 347 342 341 340 336 332 330 323 305 286 276 278 220 244 264 270 258 259 249 241 231 223 228 226 235 237 243 240 229 238 238 223 221 230 221 253 228 226 226 229 228 228 227 224
350 347 343 340 341 338 339 341 330 310 290 286 225 193 257 279 261 269 234 231 233 221 216 216 215 221 223 230 236 218 230 225 229 195 213 205 240 241 195 217 224 222 218 221 219
349 346 342 340 340 339 341 345 348 330 73 67 196 203 239 253 252 277 251 210 208 198 206 211 212 213 224 206 223 223 226 244 218 204 210 208 231 213 220 224 224 224 217 215 215
347 344 340 338 339 338 342 351 337 269 264 270 275 256 269 272 275 260 232 189 208 190 198 196 201 212 213 213 225 261 253 228 233 211 203 223 215 223 219 220 212 208 210 211 210
345 343 338 335 338 337 355 2 345 313 297 286 270 264 268 268 276 254 227 203 203 201 200 196 216 225 231 229 231 245 252 241 238 207 202 217 227 219 221 214 212 212 212 207 204
344 342 336 335 336 349 343 349 332 329 281 302 287 259 273 213 232 253 218 226 237 225 225 224 224 238 231 230 228 226 231 235 225 208 216 231 223 217 210 226 212 215 218 214 208
344 341 336 335 349 335 343 331 324 319 285 278 273 239 153 186 228 229 191 228 226 243 239 244 239 240 222 231 225 227 223 236 222 202 217 209 233 209 209 215 223 227 224 217 209
345 341 338 344 334 340 326 321 324 282 290 38 88 106 310 258 312 145 197 191 219 233 222 233 234 240 244 237 226 233 225 219 219 230 232 186 237 236 196 210 215 208 210 209 206
347 343 345 355 344 333 323 319 296 240 270 328 313 347 320 316 303 276 228 226 246 228 219 249 267 278 236 229 224 230 227 222 222 235 226 218 209 225 192 209 209 197 206 206 204
349 349 16 5 336 326 320 319 272 255 3 359 331 313 314 302 295 288 265 215 235 248 210 220 243 246 236 244 223 219 202 185 196 210 218 211 209 224 187 196 207 199 196 201 200
349 20 4 349 338 336 325 306 247 12 357 327 313 309 284 295 301 331 298 265 243 228 265 274 267 200 215 227 218 198 199 202 183 194 209 205 218 206 190 198 211 180 180 168 177
354 359 358 355 345 340 335 328 7 356 334 319 313 295 11 342 299 306 276 309 323 303 238 278 240 237 243 213 220 199 200 220 256 194 221 184 221 203 189 165 183 152 154 158 156
352 349 355 348 343 349 4 350 349 3 327 288 291 342 330 343 326 331 318 11 359 359 335 289 274 256 222 225 215 213 209 214 230 212 202 188 203 196 188 168 154 155 151 144 143
358 337 352 356 2 25 29 342 326 337 350 313 306 290 316 340 316 300 319 345 319 356 341 270 251 339 266 194 211 211 209 214 212 234 198 183 201 169 183 174 161 148 151 141 134
349 345 348 4 25 23 354 335 312 335 330 315 294 296 321 332 319 303 326 269 330 350 320 270 297 301 287 213 121 220 220 199 206 205 216 209 166 58 175 161 145 141 143 131 131
349 320 350 12 18 357 339 320 345 331 336 316 299 278 292 322 317 288 328 319 332 336 305 337 272 299 163 84 167 202 226 227 212 217 200 205 128 172 161 149 127 139 131 130 128
352 341 354 344 6 355 335 326 332 338 320 336 296 300 314 320 306 298 300 311 330 311 318 282 249 262 290 341 98 198 202 217 227 211 233 230 134 160 146 134 138 132 130 129 130
15 11 326 320 339 331 323 312 332 347 314 316 297 307 318 301 309 272 322 319 317 321 353 30 287 283 275 280 190 207 223 205 223 209 225 152 153 162 153 152 138 135 132 130 129
357 332 307 283 320 317 319 325 324 323 318 301 298 307 307 293 278 288 293 293 279 329 357 352 274 308 281 255 231 229 223 189 206 221 219 149 128 146 140 137 137 137 133 131 128
338 330 282 294 325 324 324 324 306 319 312 300 300 300 298 299 296 281 274 263 257 278 302 284 286 305 278 295 159 187 198 185 192 201 197 238 134 124 136 138 141 138 135 131 129